Weather History for BGKK - November, 2013

Change the Weather History Date:

Thursday, November 28, 2013

  Actual Average Record
Temperature  
Mean Temperature 28 °F -  
Max Temperature 31 °F 24 °F 41 °F (1997)
Min Temperature 24 °F 20 °F 15 °F (2011)
Degree Days  
Heating Degree Days 38    
Moisture  
Dew Point 15 °F    
Average Humidity 59    
Maximum Humidity 74    
Minimum Humidity 23    
Precipitation  
Precipitation 0.00 in - - ()
Sea Level Pressure  
Sea Level Pressure 29.94 in    
Wind  
Wind Speed 14 mph ()    
Max Wind Speed 26 mph    
Max Gust Speed 37 mph    
Visibility 6.2 miles    
Events Snow    
Averages and records for this station are not official NWS values.
T = Trace of Precipitation, MM = Missing Value Source: Averaged Metar Reports

Daily Weather History Graph

Daily Weather History Graph

Search for Another Location

Airport or City:

Trip Planner

Search our weather history database for the weather conditions in past years. The results will help you decide how hot, cold, wet, or windy it might be!

Date:

Astronomy

Nov. 28, 2013 Rise Set
Actual Time 8:58 AM WGT 1:34 PM WGT
Civil Twilight 7:41 AM WGT 2:51 PM WGT
Nautical Twilight 6:31 AM WGT 4:01 PM WGT
Astronomical Twilight 5:29 AM WGT 5:02 PM WGT
Moon 1:45 AM WGT (11/28) 12:34 PM WGT (11/28)
Length of Visible Light 7h 10m
Length of Day
4h 35m
Waning Crescent, 23% of the Moon is Illuminated
Nov 28
Waning Crescent
Dec 2
New
Dec 9
First Quarter
Dec 17
Full
Dec 25
Last Quarter

Hourly Weather History & Observations

Time (WGT) Temp. Windchill Dew Point Humidity Pressure Visibility Wind Dir Wind Speed Gust Speed Precip Events Conditions
12:00 AM 31 °F - 8 °F 23% 29.93 in - ENE 12.7 mph - - Snow Heavy Snow
12:20 AM 30.2 °F 19.3 °F 14.0 °F 51% 29.92 in - East 15.0 mph - N/A   Mostly Cloudy
12:50 AM 30.2 °F 18.1 °F 12.2 °F 47% 29.89 in - East 18.4 mph - N/A   Mostly Cloudy
1:20 AM 30.2 °F 18.9 °F 15.8 °F 55% 29.92 in - East 16.1 mph - N/A   Overcast
1:50 AM 30.2 °F 16.8 °F 19.4 °F 64% 29.92 in - East 23.0 mph - N/A   Mostly Cloudy
2:20 AM 28.4 °F 14.1 °F 19.4 °F 69% 29.92 in - East 24.2 mph 36.8 mph N/A   Partly Cloudy
2:50 AM 28.4 °F 15.4 °F 19.4 °F 69% 29.92 in - East 19.6 mph - N/A   Partly Cloudy
3:00 AM 29 °F - 19 °F 53% 29.92 in - East 20.7 mph - - Snow Heavy Snow
3:20 AM 28.4 °F 13.5 °F 17.6 °F 64% 29.89 in - East 26.5 mph - N/A   Scattered Clouds
3:50 AM 28.4 °F 13.8 °F 15.8 °F 59% 29.89 in - East 25.3 mph - N/A   Unknown
4:20 AM 28.4 °F 15.1 °F 17.6 °F 64% 29.89 in - East 20.7 mph - N/A   Unknown
4:50 AM 28.4 °F 15.1 °F 17.6 °F 64% 29.92 in - East 20.7 mph - N/A   Unknown
5:20 AM 28.4 °F 15.4 °F 15.8 °F 59% 29.92 in - ENE 19.6 mph - N/A   Unknown
5:50 AM 28.4 °F 16.2 °F 14.0 °F 55% 29.92 in - ENE 17.3 mph - N/A   Unknown
6:00 AM 29 °F - 10 °F 29% 29.94 in - ENE 16.1 mph - - Snow Heavy Snow
6:20 AM 28.4 °F 18.5 °F 12.2 °F 51% 29.92 in - ENE 11.5 mph - N/A   Unknown
6:50 AM 26.6 °F 18.2 °F 14.0 °F 59% 29.95 in - ENE 8.1 mph - N/A   Unknown
7:20 AM 26.6 °F 22.6 °F 15.8 °F 64% 29.95 in - South 3.5 mph - N/A   Partly Cloudy
7:50 AM 26.6 °F - 14.0 °F 59% 29.95 in - SSE 2.3 mph - N/A   Unknown
8:50 AM 24.8 °F 19.1 °F 12.2 °F 59% 29.98 in 6.2 mi SSE 4.6 mph - N/A   Partly Cloudy
9:00 AM 24 °F - 14 °F 53% 29.99 in - SSE 3.5 mph - - Snow Heavy Snow
9:50 AM 24.8 °F 16.9 °F 14.0 °F 64% 29.98 in 6.2 mi South 6.9 mph - N/A   Partly Cloudy
10:50 AM 24.8 °F 15.3 °F 15.8 °F 69% 29.98 in 6.2 mi SSW 9.2 mph - N/A   Partly Cloudy
11:50 AM 24.8 °F 16.1 °F 17.6 °F 74% 29.98 in 6.2 mi SSW 8.1 mph - N/A   Partly Cloudy
12:00 PM - - - %  in - Calm Calm - -  
12:50 PM 24.8 °F 16.1 °F 15.8 °F 69% 29.98 in 6.2 mi WSW 8.1 mph - N/A   Partly Cloudy
1:50 PM 24.8 °F 15.3 °F 15.8 °F 69% 30.01 in 6.2 mi WSW 9.2 mph - N/A   Partly Cloudy
2:50 PM 24.8 °F 15.3 °F 17.6 °F 74% 29.98 in 6.2 mi WSW 9.2 mph - N/A   Partly Cloudy
3:00 PM - - - %  in - Calm Calm - -  
6:00 PM - - - %  in - Calm Calm - -  
9:00 PM - - - %  in - Calm Calm - -